CZ-6A DEB, 64632

Orbit data source: Space-Track

CZ-6A DEB, 64632 is space debris in LEO originally from a launch on Tue, 06 Aug 2024 UTC launched from the Taiyaun Space Center, China (TSC). Debris objects in space refer to the collection of defunct objects orbiting the Earth. Examples of debris include non-operational satellites, rocket bodies, and fragments generated from explosions, collisions, or faulty payload assembly.

Loading next visibility...
Identifier
64632, 2024-140ADW
Orbit
LEO
Country
Flag of CNCN / PRC
Related business
Manufacturer
SAST
Mission
Spacecraft
Bus & Motor
Unknown
Mass
Unknown
Launch date (UTC)
2024-08-06 (2 years ago)
Launch vehicle
Unknown
Launch site
Taiyaun Space Center, China (TSC)
Object type
Payload
Rocket body
Debris
Shape & HBR
Unknown shape, 0.1 m
Radar Cross Section
Small (<0.1 m²)

Expand to show TLE details & history
Last TLE update: 14 hours ago

TLE from 14 hours ago
0 CZ-6A DEB
1 64632U 24140ADW 26171.26162324  .00002536  00000-0  98551-3 0  9992
2 64632  89.1491 285.6726 0068029 211.4273 148.2849 14.28353600 92218
Epoch: 2026-06-20T06:16Z
TLE epoch observation values (Epoch: 2026-06-20T06:16:44.247Z)
Latitude
-0.00013°
Longitude
-76.99054°
Altitude
841.929 km
Speed
7.41 km/s
True Right ascension
19h 02m 41s
True Declination
0° 00' 00"
Sunlit
Object was in full shadow at epoch
Visualization orbit readout
Latitude
Unknown
Longitude
Unknown
Altitude
Unknown
Speed
Unknown
Apparent Right ascension
Unknown
Apparent Declination
Unknown
Sunlit
N/A
Visualization observer readout
Local Sidereal Time
07:19:40
Azimuth
Unknown
Elevation
Unknown
Doppler factor
Unknown
Orbital elements
Apogee altitude
842.97 km
Perigee altitude
745.385 km
Semi-major axis
7,172.315 km
Eccentricity
0.0068
Inclination
89.1491°
RAAN
285.6726°
Arg. of periapsis
211.4273°
True anomaly
148.69176°
Mean anomaly
148.2849°
Eccentric anomaly
148.48862°
Mean motion
3.57317 °/min
Orbital period
100.75 mins
BSTAR
0.00098551
Loading maneuver chart data...
Computing Atmospheric mass density...
Loading historical data...
Loading historical data...
Loading historical data...
Loading historical data...
Loading historical data...
Loading historical data...
Loading historical data...

Documentation

Showing up to 5 results
|